Regional Weather Roundup
Issued by NWS Sioux Falls, SD

Home | Current Version | Previous Version | Graphics & Text | Print | Product List | Glossary Off
Versions: 1 2 3 4 5 6 7 8 9 10 11 12 13 14 15 16 17 18 19 20 21 22 23 24 25 26 27 28 29 30 31 32 33 34 35 36 37 38 39 40 41 42 43 44 45 46 47 48 49 50

000
ASUS43 KFSD 020002
RWRFSD

WEATHER ROUNDUP FOR SE SOUTH DAKOTA/SW MINNESOTA/NW IOWA
NATIONAL WEATHER SERVICE SIOUX FALLS SD
700 PM CDT FRI AUG 01 2014

NOTE: "FAIR" INDICATES FEW OR NO CLOUDS BELOW 12,000 FEET WITH NO
SIGNIFICANT WEATHER AND OR OBSTRUCTIONS TO VISIBILITY.


SDZ038>040-050-052>070-020100-
SOUTHEAST SOUTH DAKOTA

CITY           SKY/WX    TMP DP  RH WIND       PRES   REMARKS
CHAMBERLAIN    SUNNY     85  56  36 E13G20    30.02S
6HR MIN TEMP:  83; 6HR MAX TEMP:  89;

HURON          MOSUNNY   83  57  41 SE9       30.04S
6HR MIN TEMP:  81; 6HR MAX TEMP:  86;

MADISON        FAIR      77  55  47 CALM      30.09F
MITCHELL       SUNNY     81  58  45 SE7       30.06F
6HR MIN TEMP:  80; 6HR MAX TEMP:  84;

SIOUX FALLS    MOSUNNY   78  58  49 SE8       30.08S
6HR MIN TEMP:  78; 6HR MAX TEMP:  84;

WINNER         FAIR      91  52  26 SE9       30.01F
YANKTON        SUNNY     79  57  47 E5        30.08S
$$

MNZ071-072-080-081-089-090-097-098-020100-
SOUTHWEST MINNESOTA

CITY           SKY/WX    TMP DP  RH WIND       PRES   REMARKS
FAIRMONT       SUNNY     81  52  36 MISG      30.08S
JACKSON        SUNNY     79  55  44 E3        30.09F
LUVERNE        MOSUNNY   81  55  41 CALM      30.09S
MARSHALL       SUNNY     81  55  41 N3        30.06F
6HR MIN TEMP:  81; 6HR MAX TEMP:  84;

MONTEVIDEO     MOSUNNY   82  63  51 CALM      30.07S
PIPESTONE      SUNNY     79  55  44 CALM      30.09F
REDWOOD FALLS  SUNNY     82  60  47 N3        30.06S
TRACY          SUNNY     81  58  46 CALM      30.08F
WINDOM         SUNNY     79  55  44 CALM      30.09S
WORTHINGTON    SUNNY     79  55  44 NE3       30.11S
$$

IAZ001>003-012>014-020>022-031-032-NEZ013-014-SDZ071-020100-
NORTHWEST IOWA

CITY           SKY/WX    TMP DP  RH WIND       PRES   REMARKS
CHEROKEE       MOSUNNY   79  59  49 CALM      30.08S
DENISON        SUNNY     79  61  53 CALM      30.06F
ESTHERVILLE    SUNNY     78  59  51 N3        30.08F
SIOUX CITY     MOSUNNY   82  60  47 SE3       30.07S
6HR MIN TEMP:  80; 6HR MAX TEMP:  85;

SPENCER        SUNNY     81  57  43 CALM      30.08F
6HR MIN TEMP:  79; 6HR MAX TEMP:  84;

STORM LAKE     SUNNY     79  61  53 CALM      30.09F
$$

ABBREVIATIONS USED IN REMARKS
   TC - TEMPERATURE IN CELSIUS
  WCI - WIND CHILL INDEX
   HX - HEAT INDEX
  VSB - VISIBILITY



USA.gov is the U.S. government's official web portal to all federal, state and local government web resources and services.